Portada
METAR-TAF:

METAR-TAF

Aeropuertos :

Base aérea

Tafraoui, Argelia

latitud: 35-32-33N, longitud: 000-31-56W, altitud: 112 m

Observación

El informe se hizo hace 40 minutos, a las 15:00 UTC
Viento 12 kt del noreste
Temperatura 32°C
Humedad 43%
Presión 1015 hPa
Visibilidad 10 km o más
Nubes dispersas a una altura de 3000 ft

METAR: DAOL 171500Z 05012KT 9999 SCT030 32/18 Q1015

Hora: 16:40 (15:40 UTC)


TAF: falta

Observaciones y pronósticos meteorológicos de más de 4000 aeropuertos (mensajes METAR y TAF).

Los puntos amarillos y rojos representan las estaciones disponibles.

Ponga el ratón en el punto deseado para ver el nombre de la estación.

Haga clic para ver las observaciones y los pronósticos meteorológicos.

Para cambiar el mapa : haga clic en los botones verdes con una cruz de color negro para hacer un zoom, en el botón verde con un guión para alejar o en las flechas verdes para mapas adyacentes.


METAR-TAF: